Regional Weather Roundup
Issued by NWS Jackson, KY

Home | Current Version | Previous Version | Text Only | Print | Product List | Glossary Off
Versions: 1 2 3 4 5 6 7 8 9 10 11 12 13 14 15 16 17 18 19 20 21 22 23 24 25 26 27 28 29 30 31 32 33 34 35 36 37 38 39 40 41 42 43 44 45 46 47 48 49 50

000
ASUS43 KJKL 280510
RWRJKL

EAST KENTUCKY HOURLY WEATHER ROUNDUP
NATIONAL WEATHER SERVICE JACKSON KY
100 AM EDT SAT MAR 28 2015

NOTE: "FAIR" INDICATES FEW OR NO CLOUDS BELOW 12,000 FEET WITH
NO SIGNIFICANT WEATHER AND/OR OBSTRUCTIONS TO VISIBILITY.

* THESE REPORTS ARE NOT UNDER NWS QUALITY CONTROL AND MAY NOT
  REPORT WEATHER SUCH AS PRECIPITATION AND FOG.

KYZ079-080-083-085-087-088-110-112-115-119-120-280600
...EASTERN KENTUCKY...

CITY           SKY/WX    TMP DP  RH WIND       PRES   REMARKS
JACKSON        CLOUDY    29  16  58 VRB7      30.05R WCI  22
LONDON         CLOUDY    31  19  61 N7        30.06S WCI  24
SOMERSET*      CLOUDY    32  21  64 N6        30.10S WCI  26
MIDDLESBORO*   FLURRIES  32  26  76 N12       30.05R WCI  23
HAZARD APT*    CLOUDY    30  21  69 N3        30.05S
BLACK MTN*       N/A     19  19 100 N10         N/A  WCI   8
PIKEVILLE APT* CLOUDY    27  21  80 NW8       30.02S WCI  18
BIG SANDY*     CLOUDY    29  21  71 N8        30.05R WCI  21
MOREHEAD APT*  CLOUDY    28  14  54 NW5G12    30.10S WCI  23
$$

KYZ035-036-041-042-044-050-067-078-099-280600
...CENTRAL KENTUCKY...

CITY           SKY/WX    TMP DP  RH WIND       PRES   REMARKS
MT STERLING*   PTCLDY    28  19  69 N5        30.10S WCI  23
FLEMING/MASON* CLOUDY    27  16  63 N7        30.11R WCI  19
DANVILLE*      CLOUDY    30  19  64 N9        30.12S WCI  22
RICHMOND*      CLOUDY    30  18  59 NW8       30.09S WCI  23
LEXINGTON      CLOUDY    26  16  65 NW7       30.10S WCI  18
FRANKFORT      CLEAR     28  16  60 N8        30.11R WCI  20
$$

KYZ091>093-OHZ055-061-077-WVZ005-015-034-035-042-280600
...SOUTHERN OHIO/WEST VIRGINIA...

CITY           SKY/WX    TMP DP  RH WIND       PRES   REMARKS
COVINGTON      CLOUDY    27  11  51 NW14      30.11S WCI  16
COLUMBUS       PTCLDY    22  16  78 N10       30.09S WCI  11
DAYTON         MOCLDY    25  15  66 NW7       30.12R WCI  17
WILMINGTON     MOCLDY    22  15  75 NE7       30.08S WCI  13
HUNTINGTON     CLOUDY    28  13  53 N9        30.07S WCI  19
CHARLESTON     CLOUDY    28  10  46 NW9G18    30.04R WCI  19
PINEVILLE*     FLURRIES  31  27  85 MISG      30.01R
BECKLEY        FLURRIES  24  18  77 N13G22    29.91R WCI  12
BLUEFIELD      CLOUDY    28  20  71 NW13G20   29.87F WCI  17
$$

VAZ002-007-008-TNZ017-027-036-066-071-280600
...SOUTHWEST VIRGINIA/EAST TENNESSEE...

CITY           SKY/WX    TMP DP  RH WIND       PRES   REMARKS
WISE*          FLURRIES  28  23  80 NW8       29.94R WCI  20
JONESVILLE*    LGT RAIN  32  23  69 N8        30.03S WCI  25
ABINGDON*      LGT SNOW  33  28  83 N6        29.93R WCI  27
BRISTOL        CLOUDY    35  24  64 NW15      29.96R WCI  25
KNOXVILLE      FLURRIES  36  27  69 N9        30.04R WCI  29
OAK RIDGE      MOCLDY    37  22  54 CALM      30.06S
CROSSVILLE     CLOUDY    32  20  61 NW10G21   30.04R WCI  24
NASHVILLE      PTCLDY    34  20  56 NW7       30.15S WCI  28
$$

...KEY TO REMARKS...
VSB - VISIBILITY IN MILES
WCI - WIND CHILL INDEX
HX  - HEAT INDEX

$$



USA.gov is the U.S. government's official web portal to all federal, state and local government web resources and services.